sat.trackr.live / text

‹ back to catalog

ICEYE-X77

NORAD 69892 · 2026-156Z

PAYLOAD ACTIVE UNKNOWN

§ Identity

Operator
Country
FIN
Launch date
2026-07-07
Launch site
AFWTR
Launch vehicle
Mass (kg)
RCS (m²)

External: N2YO · Heavens-Above · Gunter

§ Orbital elements

Epoch: 2026-09-20T04:29:39.975072Z

Period
96.49 min
Inclination
97.7436°
Eccentricity
0.0005520
Mean motion
14.92442443 rev/d
Perigee alt
586.5 km
Apogee alt
594.2 km
Semi-major
6,968.5 km
B*
5.0412e-3
RAAN
162.4065°
Arg perigee
267.1993°
Mean anomaly
92.8594°
Rev number
1,116

§ Raw data

ICEYE-X771 69892U 26156Z   26263.18726823  .00051988  00000+0  50412-2 0  99942 69892  97.7436 162.4065 0005520 267.1993  92.8594 14.92442443 11168

JSON: /api/v1/satellites/69892 · /tle

For live sub-satellite position, see the globe view (requires WebGL).

§ Visibility from observer

Set your observer location to see the next 7 days of passes ≥ 10°. The values pass through the URL so the page stays shareable.

No JS? Fill the form by hand. The geolocation button needs JavaScript.